Flag for U.S.A. Weather past 2 weeks in Victorville, California, U.S.A.

39 °F


Feels Like: 34 °F
Forecast: 34 / 51 °F
Wind: 8 mph from West

Location: George Air Force Base / Victorvi

Current Time: Nov 25, 2015 at 6:31:47 AM

Latest Report: Nov 25, 2015 at 5:55 AM

Visibility: 10 mi

Pressure: 29.82 "Hg (26.92 "Hg at 830m altitude)

Humidity: 61%

Dew point: 27 °F

Location of VictorvilleLocation

Historic Weather in Victorville — Graph


Victorville temperature yesterday

Maximum temperature yesterday: 68 °F (at 12:15 PM)
Minimum temperature yesterday: 43 °F (at 5:15 AM)
Average temperature yesterday: 56 °F

Past Weeks' High & Low Weather Summary

High73 °F (Nov 20, 1:15 PM)87% (Nov 15, 1:55 PM)30.38 "Hg (Nov 15, 1:55 PM)
Low27 °F (Nov 17, 4:15 AM)9% (Nov 22, 3:55 PM)29.78 "Hg (Nov 25, 12:55 AM)
Average48 °F37%30.08 "Hg
* Reported Nov 10 5:15 AM — Nov 25 5:15 AM, Victorville, Weather by CustomWeather, © 2015

Note: Actual official high and low records may vary slightly from our data, if they occured in-between our weather recording intervals... More about our weather records


Victorville weather history for previous 24 hours

Time TempWeatherWind HumidityBarometerVisibility
5:15 AM
Wed, Nov 25
39 °FPassing clouds.16 mph65%29.80 "Hg10 mi
4:55 AM39 °FPassing clouds.15 mph65%29.80 "Hg10 mi
4:35 AM41 °FPassing clouds.16 mph61%29.80 "Hg10 mi
4:15 AM43 °FOvercast.16 mph57%29.80 "Hg10 mi
3:55 AM43 °FOvercast.17 mph61%29.79 "Hg10 mi
3:35 AM43 °FOvercast.15 mph66%29.78 "Hg10 mi
3:15 AM45 °FMostly cloudy.16 mph66%29.78 "Hg10 mi
2:55 AM45 °FOvercast.14 mph71%29.78 "Hg10 mi
2:15 AM48 °FMostly cloudy.10 mph71%29.78 "Hg10 mi
1:55 AM48 °FPartly cloudy.15 mph71%29.78 "Hg10 mi
1:15 AM46 °FClear.No wind71%29.78 "Hg10 mi
12:55 AM46 °FClear.10 mph71%29.78 "Hg10 mi
12:35 AM46 °FClear.10 mph71%29.79 "Hg10 mi
12:15 AM46 °FClear.3 mph71%29.79 "Hg10 mi
11:55 PM
Tue, Nov 24
48 °FClear.No wind66%29.81 "Hg10 mi
11:15 PM48 °FClear.5 mph66%29.81 "Hg10 mi
10:55 PM48 °FClear.16 mph71%29.81 "Hg10 mi
10:15 PM50 °FClear.15 mph62%29.81 "Hg10 mi
9:55 PM48 °FClear.13 mph66%29.81 "Hg10 mi
9:35 PM48 °FClear.9 mph71%29.82 "Hg10 mi
9:15 PM46 °FClear.No wind76%29.83 "Hg10 mi
8:55 PM48 °FClear.8 mph71%29.83 "Hg10 mi
7:55 PM50 °FClear.No wind67%29.83 "Hg10 mi
7:15 PM52 °FClear.No wind54%29.84 "Hg10 mi
6:55 PM54 °FClear.6 mph47%29.83 "Hg10 mi
6:35 PM55 °FClear.9 mph28%29.83 "Hg10 mi
6:15 PM55 °FClear.13 mph31%29.81 "Hg10 mi
5:55 PM57 °FClear.14 mph27%29.82 "Hg10 mi
5:35 PM57 °FClear.18 mph27%29.81 "Hg10 mi
5:15 PM57 °FClear.18 mph29%29.81 "Hg10 mi
4:15 PM63 °FSunny.16 mph20%29.83 "Hg10 mi
3:55 PM63 °FSunny.9 mph24%29.83 "Hg10 mi
3:15 PM64 °FSunny.16 mph18%29.82 "Hg10 mi
2:35 PM66 °FSunny.18 mph18%29.82 "Hg10 mi
2:15 PM66 °FSunny.21 mph17%29.82 "Hg10 mi
1:55 PM66 °FSunny.18 mph17%29.82 "Hg10 mi
1:35 PM66 °FSunny.24 mph17%29.83 "Hg10 mi
1:15 PM66 °FSunny.22 mph17%29.84 "Hg10 mi
12:55 PM68 °FSunny.22 mph16%29.85 "Hg10 mi
12:35 PM68 °FSunny.24 mph14%29.86 "Hg10 mi
12:15 PM68 °FSunny.22 mph14%29.87 "Hg10 mi
11:55 AM66 °FScattered clouds.22 mph15%29.88 "Hg10 mi
11:15 AM66 °FSunny.25 mph15%29.89 "Hg7 mi
10:55 AM66 °FSunny.22 mph15%29.90 "Hg10 mi
10:15 AM66 °FSunny.15 mph15%29.92 "Hg10 mi
9:55 AM66 °FSunny.20 mph15%29.92 "Hg10 mi
9:35 AM64 °FSunny.16 mph16%29.93 "Hg10 mi
9:15 AM64 °FSunny.8 mph16%29.94 "Hg10 mi
8:55 AM63 °FSunny.No wind20%29.94 "Hg10 mi
8:35 AM61 °FSunny.9 mph22%29.94 "Hg10 mi
8:15 AM59 °FSunny.14 mph27%29.94 "Hg10 mi
7:55 AM57 °FSunny.17 mph27%29.93 "Hg10 mi
7:35 AM55 °FSunny.14 mph26%29.92 "Hg10 mi
7:15 AM54 °FSunny.20 mph30%29.91 "Hg10 mi
6:55 AM54 °FSunny.18 mph30%29.91 "Hg10 mi
6:35 AM52 °FSunny.20 mph32%29.91 "Hg10 mi
6:15 AM52 °FClear.15 mph35%29.91 "Hg10 mi
Weather by CustomWeather, © 2015

See weather overviewHow to use our weather pages